[[{"header":{"parameterUnit":"m.s-1","parameterCategory":1,"la1":30.2991,"la2":30.254,"lo1":-89.0895,"lo2":-89.0444,"dy":0.0017,"dx":0.0017,"nx":28,"ny":28,"refTime":"2025-07-17T21:00:00:Z","depth":0,"parameterNumber":2,"parameterNumberName":"U-component_of_WINDS"},"data":[0,0,0,0,0,0,0,0,0,0,0,0,0,0,0,0,0,0,0,0,0,0,0,0,0,0,0,0,0,0,0,0,0,0,0,0,0,0,0,0,0,0,0,0,0,0,0,0,0,0,0,0,0,0,0,0,0,0,1.5528,1.5529,0,1.5595,1.5596,1.5597,1.5587,1.5586,1.5585,1.5583,1.5652,1.5654,1.5657,0,0,0,0,0,0,0,0,0,0,0,0,0,1.5391,1.5393,1.5528,1.5529,1.553,1.5595,1.5596,1.5597,1.5587,1.5586,1.5584,1.5583,1.5651,1.5654,1.5658,0,0,0,0,0,0,0,0,0,0,0,0,0,1.5453,1.5394,1.5528,1.5533,1.5534,1.5595,1.5596,1.5597,1.5587,1.5586,1.5584,1.5582,1.565,1.5654,1.5658,1.5718,0,0,1.5671,1.5673,0,0,0,0,0,0,0,0,1.545,1.5458,1.5531,1.5533,1.5534,1.5581,1.5572,1.5638,1.5588,1.5567,1.5583,1.5582,1.563,1.5635,1.5652,1.5722,1.5725,1.5672,1.5674,1.5676,1.5677,0,0,0,0,0,0,0,1.5445,1.5455,1.5555,1.5532,1.5534,1.5531,1.5538,1.5585,1.5607,1.5569,1.5568,1.5576,1.563,1.5647,1.5653,1.5726,1.5671,1.5675,1.5678,1.568,1.5847,1.5848,0,0,0,0,0,0,1.544,1.5452,1.5553,1.5557,1.5487,1.5535,1.5543,1.5568,1.5606,1.5611,1.5578,1.5576,1.5641,1.5648,1.5655,1.5727,1.5676,1.568,1.5683,1.5845,1.5847,1.5849,0,0,0,0,0,0,1.5437,1.5449,1.555,1.5504,1.5517,1.5539,1.5567,1.557,1.5587,1.5613,1.5617,1.5592,1.564,1.5649,1.5702,1.5729,1.5682,1.5686,1.5843,1.5845,1.5848,1.5872,0,0,0,0,0,0,1.5433,1.5448,1.5472,1.5505,1.5519,1.5596,1.5569,1.5572,1.5595,1.5593,1.5627,1.5631,1.5639,1.5696,1.5707,1.5735,1.5689,1.584,1.5844,1.5847,1.5869,1.5875,1.5881,0,0,0,0,0,1.5428,1.5476,1.5473,1.5485,1.5549,1.5598,1.5606,1.5614,1.5597,1.562,1.5637,1.563,1.5725,1.5702,1.5714,1.5743,1.5839,1.5843,1.5847,1.5866,1.5874,1.5881,0,0,0,0,0,0,1.5445,1.548,1.5477,1.5537,1.5565,1.5596,1.5626,1.5623,1.5655,1.5652,1.5661,1.5669,1.5722,1.5738,1.5711,1.5803,1.5779,1.5786,1.579,1.5798,1.5803,1.5798,1.5693,0,0,0,0,0,1.5456,1.5493,1.5522,1.5572,1.5585,1.5603,1.5625,1.5629,1.5657,1.5669,1.5689,1.5717,1.5753,1.5776,1.5811,1.5872,1.5878,1.5898,1.5904,1.5908,1.5914,1.5945,1.5954,1.5863,1.5863,1.5863,0,0,1.5479,1.5502,1.5525,1.5576,1.5597,1.5634,1.5613,1.5654,1.5681,1.5675,1.5726,1.5742,1.5773,1.583,1.5856,1.5845,1.594,1.5914,1.5917,1.592,1.595,1.5959,1.5967,1.5866,1.5865,1.5865,0,0,1.5538,1.5561,1.5604,1.5626,1.5659,1.567,1.5681,1.5713,1.5723,1.5774,1.577,1.5802,1.5865,1.5887,1.5906,1.5973,1.5968,1.5985,1.6015,1.6046,1.6053,1.6059,1.6082,1.609,1.599,1.599,1.599,0,1.5562,1.5618,1.5627,1.5667,1.5689,1.5685,1.5728,1.575,1.5792,1.5807,1.5794,1.5871,1.5892,1.5953,1.5969,1.5986,1.5997,1.598,1.6051,1.6058,1.6064,1.6085,1.6094,1.5992,1.5992,1.5991,1.5991,0,1.5645,1.5684,1.5715,1.5755,1.5781,1.5823,1.5837,1.5862,1.5863,1.5876,1.5927,1.5953,1.5991,1.6007,1.6009,1.6068,1.606,1.6049,1.6026,1.6074,1.6094,1.6103,1.5994,1.5994,1.5993,1.5993,0,0,1.5717,1.5761,1.5772,1.579,1.5825,1.5855,1.5897,1.5935,1.5955,1.5985,1.6018,1.6071,1.6061,1.6083,1.6088,1.6115,1.6165,1.6101,1.6102,1.6111,1.6229,1.6236,1.6245,1.6162,1.6164,1.6165,1.6226,0,1.5778,1.5851,1.586,1.5924,1.5959,1.5956,1.5992,1.6017,1.603,1.6062,1.6076,1.6112,1.6097,1.611,1.6137,1.6153,1.6188,1.6149,1.6193,1.6194,1.6183,1.6256,1.6263,1.632,1.6234,1.6235,1.6236,0,1.586,1.5891,1.5959,1.5988,1.6004,1.6036,1.607,1.6101,1.6129,1.6137,1.6161,1.6162,1.6204,1.618,1.6237,1.621,1.6229,1.6239,1.6242,1.6245,1.6217,1.626,1.6338,1.6346,1.6249,1.6248,1.6247,0,1.5903,1.5962,1.601,1.6026,1.6062,1.6084,1.61,1.6127,1.6149,1.618,1.6193,1.6229,1.6248,1.6275,1.6285,1.6267,1.6342,1.6319,1.6348,1.6348,1.6363,1.6361,1.6443,1.6377,1.6377,1.6377,1.6377,0,1.597,1.6011,1.603,1.6059,1.6105,1.6114,1.6159,1.6174,1.6198,1.623,1.623,1.6259,1.6272,1.6304,1.6313,1.6358,1.6367,1.6373,1.6375,1.6372,1.6371,1.6384,1.6379,1.6379,1.6379,1.6378,1.6378,0,1.6026,1.604,1.6091,1.6121,1.613,1.6162,1.6187,1.6215,1.6228,1.6268,1.6278,1.6297,1.6334,1.6348,1.6393,1.6399,1.6451,1.645,1.6441,1.6441,1.6469,1.6466,1.6561,1.6573,1.65,1.6501,1.6502,0,1.6067,1.6098,1.6131,1.6152,1.6169,1.6203,1.6225,1.6236,1.6259,1.6293,1.6317,1.6353,1.6383,1.6443,1.6461,1.6495,1.6494,1.6525,1.65,1.6496,1.6493,1.649,1.6493,1.653,1.653,1.6531,1.6531,0,1.6137,1.6142,1.6174,1.6208,1.6234,1.6262,1.6288,1.6306,1.632,1.6346,1.6383,1.6407,1.6453,1.6489,1.6524,1.6541,1.6538,1.654,1.6548,1.6545,1.6538,1.654,1.6453,1.6537,1.6537,1.6536,1.6536,1.6536,1.6185,1.6213,1.624,1.6275,1.6296,1.632,1.6348,1.6363,1.6395,1.6433,1.6437,1.6478,1.6505,1.6552,1.657,1.6601,1.6593,1.6605,1.6608,1.661,1.6612,1.6534,1.6608,1.6608,1.6608,1.6608,1.6607,0,1.6254,1.6271,1.6304,1.634,1.6368,1.6364,1.6393,1.6416,1.6451,1.6477,1.6506,1.6549,1.6584,1.6605,1.664,1.6661,1.666,1.667,1.6667,1.6671,1.6618,1.6607,1.6669,1.6669,1.6669,1.6669,1.6669,1.6669,1.6293,1.6338,1.6347,1.6402,1.6419,1.6458,1.6475,1.6498,1.6518,1.6566,1.6594,1.6608,1.6631,1.6668,1.67,1.6705,1.6717,1.6727,1.6731,1.6681,1.6675,1.6669,1.6658,1.673,1.673,1.6781,1.6781,1.6782]},{"header":{"parameterUnit":"m.s-1","parameterCategory":1,"la1":30.2991,"la2":30.254,"lo1":-89.0895,"lo2":-89.0444,"dy":0.0017,"dx":0.0017,"nx":28,"ny":28,"refTime":"2025-07-17T21:00:00:Z","depth":0,"parameterNumber":3,"parameterNumberName":"V-component_of_WINDS"},"data":[0,0,0,0,0,0,0,0,0,0,0,0,0,0,0,0,0,0,0,0,0,0,0,0,0,0,0,0,0,0,0,0,0,0,0,0,0,0,0,0,0,0,0,0,0,0,0,0,0,0,0,0,0,0,0,0,0,0,2.3509,2.351,0,2.3534,2.3535,2.3535,2.3484,2.3483,2.3481,2.3479,2.3504,2.3506,2.3508,0,0,0,0,0,0,0,0,0,0,0,0,0,2.3416,2.3418,2.3509,2.351,2.351,2.3534,2.3535,2.3535,2.3485,2.3483,2.3481,2.3479,2.3503,2.3506,2.3509,0,0,0,0,0,0,0,0,0,0,0,0,0,2.345,2.3419,2.3509,2.3488,2.3486,2.3534,2.3535,2.3535,2.3485,2.3483,2.348,2.3478,2.3503,2.3506,2.3509,2.3579,0,0,2.3519,2.352,0,0,0,0,0,0,0,0,2.3449,2.3454,2.3491,2.3489,2.3488,2.3504,2.3511,2.355,2.3486,2.3485,2.3479,2.3477,2.3506,2.3509,2.3519,2.358,2.3581,2.3519,2.3521,2.3523,2.3524,0,0,0,0,0,0,0,2.3446,2.3453,2.3519,2.3491,2.3489,2.3476,2.3478,2.3518,2.3509,2.3485,2.3482,2.3485,2.3505,2.3516,2.3519,2.3581,2.3519,2.3522,2.3524,2.3525,2.37,2.3702,0,0,0,0,0,0,2.3447,2.3451,2.3518,2.352,2.3462,2.348,2.3482,2.3501,2.3509,2.3507,2.3487,2.3483,2.3511,2.3515,2.352,2.3601,2.3523,2.3526,2.3528,2.3697,2.37,2.3703,0,0,0,0,0,0,2.3445,2.3453,2.3517,2.3485,2.3492,2.3484,2.3506,2.3503,2.3514,2.351,2.3508,2.3501,2.351,2.3515,2.3564,2.3601,2.3527,2.353,2.3694,2.3698,2.3702,2.3765,0,0,0,0,0,0,2.3443,2.3453,2.348,2.3486,2.3494,2.3562,2.3508,2.3505,2.352,2.3514,2.3522,2.3521,2.3508,2.356,2.3568,2.3604,2.3533,2.3691,2.3696,2.37,2.376,2.3771,2.378,0,0,0,0,0,2.3439,2.3497,2.3482,2.349,2.3527,2.3565,2.3569,2.3553,2.3523,2.355,2.3547,2.3521,2.3596,2.3565,2.3574,2.3612,2.3688,2.3694,2.37,2.3755,2.3769,2.378,0,0,0,0,0,0,2.3496,2.3497,2.348,2.3542,2.3554,2.3556,2.3589,2.3568,2.3589,2.3583,2.3562,2.3564,2.3617,2.3619,2.3585,2.3679,2.3637,2.3645,2.3676,2.3689,2.3699,2.3697,2.3536,0,0,0,0,0,2.3516,2.3546,2.3546,2.36,2.3607,2.3597,2.3613,2.3599,2.3611,2.3615,2.3616,2.3628,2.3654,2.3671,2.3695,2.376,2.376,2.379,2.3801,2.3809,2.3816,2.3849,2.3862,2.3723,2.3723,2.3723,0,0,2.3557,2.3561,2.3582,2.3611,2.3619,2.365,2.3602,2.3637,2.366,2.362,2.3667,2.3668,2.3679,2.3736,2.3761,2.374,2.3855,2.3817,2.3824,2.3826,2.3857,2.387,2.3882,2.3727,2.3726,2.3725,0,0,2.3647,2.3654,2.3699,2.3708,2.372,2.3713,2.3724,2.3729,2.3729,2.3775,2.3745,2.3772,2.3818,2.3826,2.3837,2.393,2.3906,2.3938,2.3992,2.4024,2.4035,2.4045,2.4077,2.4089,2.3945,2.3945,2.3945,0,2.3696,2.3743,2.3725,2.3763,2.3776,2.3741,2.3786,2.3795,2.3815,2.3824,2.38,2.3856,2.3861,2.3919,2.3942,2.3952,2.3963,2.3937,2.4035,2.4045,2.4053,2.4084,2.4096,2.3949,2.3949,2.3948,2.3948,0,2.3802,2.3835,2.387,2.3889,2.3907,2.3948,2.3935,2.3955,2.394,2.3935,2.3982,2.3987,2.4011,2.4023,2.4009,2.4079,2.4065,2.4039,2.3996,2.4071,2.4099,2.4111,2.3954,2.3953,2.3952,2.3951,0,0,2.393,2.3938,2.3951,2.3959,2.3969,2.3993,2.4032,2.4056,2.4072,2.4087,2.4118,2.4157,2.4132,2.4144,2.413,2.4159,2.4231,2.4128,2.4128,2.4147,2.4307,2.4327,2.4341,2.4215,2.4217,2.4219,2.4306,0,2.4019,2.4086,2.407,2.4137,2.4166,2.4133,2.4167,2.4177,2.4173,2.4197,2.4193,2.4221,2.4186,2.4193,2.422,2.4217,2.4263,2.421,2.4244,2.4245,2.4241,2.4356,2.4377,2.4459,2.4317,2.4319,2.432,0,2.4131,2.415,2.4219,2.4223,2.4235,2.4266,2.4285,2.4309,2.4318,2.4314,2.4327,2.4307,2.4345,2.4301,2.4353,2.4317,2.433,2.433,2.4333,2.4335,2.4287,2.436,2.4484,2.4497,2.4338,2.4336,2.4335,0,2.4216,2.4258,2.4304,2.4312,2.4319,2.4341,2.4344,2.4352,2.4366,2.4383,2.4392,2.4413,2.4425,2.4441,2.4428,2.4398,2.4481,2.4437,2.4477,2.4478,2.4496,2.4495,2.4624,2.4506,2.4505,2.4505,2.4505,0,2.4317,2.436,2.4342,2.4371,2.4418,2.44,2.4447,2.4446,2.4453,2.448,2.4453,2.448,2.446,2.4484,2.4474,2.4517,2.4523,2.452,2.4516,2.4522,2.4522,2.453,2.4524,2.4508,2.4508,2.4507,2.4506,0,2.4419,2.4409,2.4458,2.446,2.4461,2.4496,2.4497,2.4523,2.4517,2.4552,2.4559,2.4551,2.4578,2.4566,2.4594,2.4587,2.4643,2.4632,2.464,2.4637,2.4678,2.4674,2.4815,2.4832,2.4704,2.4705,2.4706,0,2.4484,2.4516,2.4522,2.4538,2.4544,2.4571,2.4585,2.4568,2.4584,2.4597,2.4621,2.4646,2.4665,2.471,2.4705,2.4727,2.4716,2.4764,2.4719,2.4723,2.4716,2.4714,2.4717,2.4773,2.4775,2.4776,2.4777,0,2.4599,2.4592,2.4615,2.4635,2.4653,2.4669,2.4681,2.4696,2.4679,2.4699,2.4726,2.4741,2.477,2.4794,2.4813,2.4816,2.4794,2.4791,2.4801,2.4807,2.481,2.4808,2.4664,2.4788,2.4787,2.4786,2.4785,2.4785,2.4684,2.4711,2.4719,2.4744,2.4752,2.4764,2.4789,2.4786,2.4808,2.4831,2.4819,2.4851,2.4858,2.4881,2.4887,2.4911,2.4892,2.4908,2.4911,2.4915,2.4921,2.4807,2.4915,2.4914,2.4914,2.4914,2.4914,0,2.4797,2.4801,2.4824,2.4843,2.4862,2.484,2.4852,2.487,2.4899,2.4908,2.4927,2.4958,2.4981,2.4979,2.5,2.502,2.501,2.5026,2.5024,2.5025,2.4937,2.4925,2.5034,2.5034,2.5034,2.5034,2.5034,2.5034,2.4859,2.4903,2.4897,2.4944,2.4947,2.4978,2.4987,2.4998,2.5005,2.5041,2.506,2.5058,2.5063,2.5084,2.5104,2.5103,2.5112,2.5132,2.5126,2.5044,2.5032,2.502,2.5009,2.5134,2.5134,2.5213,2.5213,2.5214]}]]